Time,TemperatureF,DewpointF,PressureIn,WindDirection,WindDirectionDegrees,WindSpeedMPH,WindSpeedGustMPH,Humidity,HourlyPrecipIn,Conditions,Clouds,dailyrainin,SoftwareType,DateUTC
2013-03-01 00:00:00,34.8,27.0,29.96,ENE,68,0.0,0.0,73,0.00,,,0.00,Wunderground v.1.15,2013-03-01 05:00:00,
2013-03-01 00:06:00,34.6,27.2,29.96,ENE,68,0.0,0.0,74,0.00,,,0.00,Wunderground v.1.15,2013-03-01 05:06:00,
2013-03-01 00:12:00,34.5,27.1,29.95,ENE,68,0.0,0.0,74,0.00,,,0.00,Wunderground v.1.15,2013-03-01 05:12:00,
2013-03-01 00:16:00,34.4,27.0,29.96,ENE,68,0.0,0.0,74,0.00,,,0.00,Wunderground v.1.15,2013-03-01 05:16:00,
2013-03-01 00:20:00,34.4,27.0,29.96,ENE,69,0.0,0.0,74,0.00,,,0.00,Wunderground v.1.15,2013-03-01 05:20:00,
2013-03-01 00:26:00,34.4,27.0,29.96,ENE,69,0.0,0.0,74,0.00,,,0.00,Wunderground v.1.15,2013-03-01 05:26:00,
2013-03-01 00:32:00,34.4,27.0,29.97,NE,50,0.0,1.0,74,0.00,,,0.00,Wunderground v.1.15,2013-03-01 05:32:00,
2013-03-01 00:38:00,34.6,27.2,29.97,NE,50,0.0,1.0,74,0.00,,,0.00,Wunderground v.1.15,2013-03-01 05:38:00,
2013-03-01 00:44:00,34.7,26.9,29.97,NE,50,0.0,0.0,73,0.00,,,0.00,Wunderground v.1.15,2013-03-01 05:44:00,
2013-03-01 00:50:00,35.0,27.2,29.97,ENE,69,1.0,1.0,73,0.00,,,0.00,Wunderground v.1.15,2013-03-01 05:50:00,
2013-03-01 00:56:00,35.3,27.2,29.97,East,87,1.0,2.0,72,0.00,,,0.00,Wunderground v.1.15,2013-03-01 05:56:00,
2013-03-01 01:02:00,35.5,27.4,29.97,East,87,0.0,0.0,72,0.00,,,0.00,Wunderground v.1.15,2013-03-01 06:02:00,
2013-03-01 01:08:00,35.6,27.5,29.97,ENE,57,0.0,3.0,72,0.00,,,0.00,Wunderground v.1.15,2013-03-01 06:08:00,
2013-03-01 01:14:00,35.5,27.4,29.97,ENE,57,0.0,0.0,72,0.00,,,0.00,Wunderground v.1.15,2013-03-01 06:14:00,
2013-03-01 01:20:00,35.3,27.2,29.97,ENE,57,0.0,0.0,72,0.00,,,0.00,Wunderground v.1.15,2013-03-01 06:20:00,
2013-03-01 01:26:00,35.1,27.0,29.97,ENE,57,0.0,0.0,72,0.00,,,0.00,Wunderground v.1.15,2013-03-01 06:26:00,
2013-03-01 01:32:00,34.8,27.0,29.98,ENE,57,0.0,0.0,73,0.00,,,0.00,Wunderground v.1.15,2013-03-01 06:32:00,
2013-03-01 01:38:00,34.5,27.1,29.97,ENE,57,0.0,0.0,74,0.00,,,0.00,Wunderground v.1.15,2013-03-01 06:38:00,
2013-03-01 01:44:00,34.2,27.1,29.97,ENE,57,0.0,0.0,75,0.00,,,0.00,Wunderground v.1.15,2013-03-01 06:44:00,
2013-03-01 01:50:00,33.8,26.7,29.97,ENE,57,0.0,0.0,75,0.00,,,0.00,Wunderground v.1.15,2013-03-01 06:50:00,
2013-03-01 01:56:00,33.5,26.7,29.96,ENE,57,0.0,0.0,76,0.00,,,0.00,Wunderground v.1.15,2013-03-01 06:56:00,
2013-03-01 02:02:00,33.2,26.8,29.96,ENE,57,0.0,0.0,77,0.00,,,0.00,Wunderground v.1.15,2013-03-01 07:02:00,
2013-03-01 02:08:00,32.8,26.7,29.96,ENE,57,0.0,0.0,78,0.00,,,0.00,Wunderground v.1.15,2013-03-01 07:08:00,
2013-03-01 02:14:00,32.5,26.7,29.96,ENE,57,0.0,0.0,79,0.00,,,0.00,Wunderground v.1.15,2013-03-01 07:14:00,
2013-03-01 02:20:00,32.1,26.6,29.96,ENE,57,0.0,0.0,80,0.00,,,0.00,Wunderground v.1.15,2013-03-01 07:20:00,
2013-03-01 02:26:00,31.8,26.6,29.96,ENE,57,0.0,0.0,81,0.00,,,0.00,Wunderground v.1.15,2013-03-01 07:26:00,
2013-03-01 02:32:00,31.6,26.4,29.95,ENE,57,0.0,0.0,81,0.00,,,0.00,Wunderground v.1.15,2013-03-01 07:32:00,
2013-03-01 02:38:00,31.4,26.5,29.95,ENE,57,0.0,0.0,82,0.00,,,0.00,Wunderground v.1.15,2013-03-01 07:38:00,
2013-03-01 02:44:00,31.4,26.5,29.96,ENE,57,0.0,0.0,82,0.00,,,0.00,Wunderground v.1.15,2013-03-01 07:44:00,
2013-03-01 02:50:00,31.5,26.6,29.96,ENE,57,0.0,0.0,82,0.00,,,0.00,Wunderground v.1.15,2013-03-01 07:50:00,
2013-03-01 02:56:00,31.5,26.6,29.95,ENE,57,0.0,0.0,82,0.00,,,0.00,Wunderground v.1.15,2013-03-01 07:56:00,
2013-03-01 03:02:00,31.5,26.6,29.96,ENE,57,0.0,0.0,82,0.00,,,0.00,Wunderground v.1.15,2013-03-01 08:02:00,
2013-03-01 03:08:00,31.5,26.6,29.95,ENE,57,0.0,0.0,82,0.00,,,0.00,Wunderground v.1.15,2013-03-01 08:08:00,
2013-03-01 03:14:00,31.4,26.5,29.95,ENE,57,0.0,0.0,82,0.00,,,0.00,Wunderground v.1.15,2013-03-01 08:14:00,
2013-03-01 03:20:00,31.3,26.7,29.96,ENE,57,0.0,0.0,83,0.00,,,0.00,Wunderground v.1.15,2013-03-01 08:20:00,
2013-03-01 03:26:00,31.0,26.4,29.96,ENE,57,0.0,0.0,83,0.00,,,0.00,Wunderground v.1.15,2013-03-01 08:26:00,
2013-03-01 03:32:00,30.8,26.5,29.96,ENE,57,0.0,0.0,84,0.00,,,0.00,Wunderground v.1.15,2013-03-01 08:32:00,
2013-03-01 03:38:00,30.6,26.3,29.96,ENE,57,0.0,0.0,84,0.00,,,0.00,Wunderground v.1.15,2013-03-01 08:38:00,
2013-03-01 03:44:00,30.4,26.4,29.96,ENE,57,0.0,0.0,85,0.00,,,0.00,Wunderground v.1.15,2013-03-01 08:44:00,
2013-03-01 03:50:00,30.1,26.1,29.96,ENE,57,0.0,0.0,85,0.00,,,0.00,Wunderground v.1.15,2013-03-01 08:50:00,
2013-03-01 03:56:00,29.9,26.2,29.96,ENE,57,0.0,0.0,86,0.00,,,0.00,Wunderground v.1.15,2013-03-01 08:56:00,
2013-03-01 04:02:00,29.7,26.0,29.96,ENE,57,0.0,0.0,86,0.00,,,0.00,Wunderground v.1.15,2013-03-01 09:02:00,
2013-03-01 04:08:00,29.6,26.2,29.96,ENE,57,0.0,0.0,87,0.00,,,0.00,Wunderground v.1.15,2013-03-01 09:08:00,
2013-03-01 04:14:00,29.4,26.0,29.96,ENE,57,0.0,0.0,87,0.00,,,0.00,Wunderground v.1.15,2013-03-01 09:14:00,
2013-03-01 04:20:00,29.3,26.2,29.97,ENE,57,0.0,0.0,88,0.00,,,0.00,Wunderground v.1.15,2013-03-01 09:20:00,
2013-03-01 04:26:00,29.2,25.8,29.97,ENE,57,0.0,0.0,87,0.00,,,0.00,Wunderground v.1.15,2013-03-01 09:26:00,
2013-03-01 04:32:00,29.1,26.0,29.97,ENE,57,0.0,0.0,88,0.00,,,0.00,Wunderground v.1.15,2013-03-01 09:32:00,
2013-03-01 04:38:00,28.9,25.8,29.97,ENE,57,0.0,0.0,88,0.00,,,0.00,Wunderground v.1.15,2013-03-01 09:38:00,
2013-03-01 04:44:00,28.8,25.7,29.97,ENE,57,0.0,0.0,88,0.00,,,0.00,Wunderground v.1.15,2013-03-01 09:44:00,
2013-03-01 04:50:00,28.6,25.8,29.97,ENE,57,0.0,0.0,89,0.00,,,0.00,Wunderground v.1.15,2013-03-01 09:50:00,
2013-03-01 04:56:00,28.5,25.4,29.97,ENE,57,0.0,0.0,88,0.00,,,0.00,Wunderground v.1.15,2013-03-01 09:56:00,
2013-03-01 05:02:00,28.3,25.5,29.98,ENE,57,0.0,0.0,89,0.00,,,0.00,Wunderground v.1.15,2013-03-01 10:02:00,
2013-03-01 05:08:00,28.1,25.3,29.97,ENE,57,0.0,0.0,89,0.00,,,0.00,Wunderground v.1.15,2013-03-01 10:08:00,
2013-03-01 05:14:00,28.1,25.5,29.98,ENE,57,0.0,0.0,90,0.00,,,0.00,Wunderground v.1.15,2013-03-01 10:14:00,
2013-03-01 05:20:00,28.0,25.4,29.97,ENE,57,0.0,0.0,90,0.00,,,0.00,Wunderground v.1.15,2013-03-01 10:20:00,
2013-03-01 05:26:00,27.9,25.3,29.98,ENE,57,0.0,0.0,90,0.00,,,0.00,Wunderground v.1.15,2013-03-01 10:26:00,
2013-03-01 05:32:00,27.8,25.2,29.98,ENE,57,0.0,0.0,90,0.00,,,0.00,Wunderground v.1.15,2013-03-01 10:32:00,
2013-03-01 05:38:00,27.6,25.1,29.98,ENE,57,0.0,0.0,90,0.00,,,0.00,Wunderground v.1.15,2013-03-01 10:38:00,
2013-03-01 05:44:00,27.6,25.3,29.98,ENE,57,0.0,0.0,91,0.00,,,0.00,Wunderground v.1.15,2013-03-01 10:44:00,
2013-03-01 05:50:00,27.6,25.3,29.98,ENE,57,0.0,0.0,91,0.00,,,0.00,Wunderground v.1.15,2013-03-01 10:50:00,
2013-03-01 05:56:00,27.4,25.1,29.99,ENE,57,0.0,0.0,91,0.00,,,0.00,Wunderground v.1.15,2013-03-01 10:56:00,
2013-03-01 06:02:00,27.3,25.0,29.98,ENE,57,0.0,0.0,91,0.00,,,0.00,Wunderground v.1.15,2013-03-01 11:02:00,
2013-03-01 06:08:00,27.3,25.3,29.99,ENE,57,0.0,0.0,92,0.00,,,0.00,Wunderground v.1.15,2013-03-01 11:08:00,
2013-03-01 06:14:00,27.1,24.8,29.99,ENE,57,0.0,0.0,91,0.00,,,0.00,Wunderground v.1.15,2013-03-01 11:14:00,
2013-03-01 06:20:00,27.1,25.1,29.99,ENE,57,0.0,0.0,92,0.00,,,0.00,Wunderground v.1.15,2013-03-01 11:20:00,
2013-03-01 06:26:00,27.1,25.1,29.99,ENE,57,0.0,0.0,92,0.00,,,0.00,Wunderground v.1.15,2013-03-01 11:26:00,
2013-03-01 06:32:00,27.0,25.0,29.99,ENE,57,0.0,0.0,92,0.00,,,0.00,Wunderground v.1.15,2013-03-01 11:32:00,
2013-03-01 06:38:00,26.9,24.9,29.99,ENE,57,0.0,0.0,92,0.00,,,0.00,Wunderground v.1.15,2013-03-01 11:38:00,
2013-03-01 06:44:00,26.7,24.7,29.99,ENE,57,0.0,0.0,92,0.00,,,0.00,Wunderground v.1.15,2013-03-01 11:44:00,
2013-03-01 06:50:00,26.7,24.7,29.99,ENE,57,0.0,0.0,92,0.00,,,0.00,Wunderground v.1.15,2013-03-01 11:50:00,
2013-03-01 06:56:00,26.6,24.8,29.99,ENE,57,0.0,0.0,93,0.00,,,0.00,Wunderground v.1.15,2013-03-01 11:56:00,
2013-03-01 07:02:00,26.6,24.6,29.99,ENE,57,0.0,0.0,92,0.00,,,0.00,Wunderground v.1.15,2013-03-01 12:02:00,
2013-03-01 07:08:00,26.5,24.8,29.99,ENE,57,0.0,0.0,93,0.00,,,0.00,Wunderground v.1.15,2013-03-01 12:08:00,
2013-03-01 07:14:00,26.5,24.8,29.99,ENE,57,0.0,0.0,93,0.00,,,0.00,Wunderground v.1.15,2013-03-01 12:14:00,
2013-03-01 07:20:00,26.7,24.9,29.99,ENE,57,0.0,0.0,93,0.00,,,0.00,Wunderground v.1.15,2013-03-01 12:20:00,
2013-03-01 07:26:00,27.2,25.7,29.99,ENE,57,0.0,0.0,94,0.00,,,0.00,Wunderground v.1.15,2013-03-01 12:26:00,
2013-03-01 07:32:00,27.9,26.7,29.99,ENE,57,0.0,0.0,95,0.00,,,0.00,Wunderground v.1.15,2013-03-01 12:32:00,
2013-03-01 07:38:00,28.7,27.4,29.99,ENE,57,0.0,0.0,95,0.00,,,0.00,Wunderground v.1.15,2013-03-01 12:38:00,
2013-03-01 07:44:00,29.3,28.0,30.00,ENE,57,0.0,0.0,95,0.00,,,0.00,Wunderground v.1.15,2013-03-01 12:44:00,
2013-03-01 07:50:00,30.1,28.6,30.00,ENE,57,0.0,0.0,94,0.00,,,0.00,Wunderground v.1.15,2013-03-01 12:50:00,
2013-03-01 07:56:00,31.0,28.7,30.00,ENE,57,0.0,0.0,91,0.00,,,0.00,Wunderground v.1.15,2013-03-01 12:56:00,
2013-03-01 08:02:00,32.5,29.9,30.00,ENE,57,0.0,0.0,90,0.00,,,0.00,Wunderground v.1.15,2013-03-01 13:02:00,
2013-03-01 08:08:00,34.4,30.6,30.00,ENE,57,0.0,0.0,86,0.00,,,0.00,Wunderground v.1.15,2013-03-01 13:08:00,
2013-03-01 08:14:00,35.9,31.2,30.00,SSE,164,0.0,0.0,83,0.00,,,0.00,Wunderground v.1.15,2013-03-01 13:14:00,
2013-03-01 08:20:00,36.8,31.2,30.00,SSE,164,0.0,0.0,80,0.00,,,0.00,Wunderground v.1.15,2013-03-01 13:20:00,
2013-03-01 08:26:00,37.8,31.9,30.01,SSE,164,0.0,0.0,79,0.00,,,0.00,Wunderground v.1.15,2013-03-01 13:26:00,
2013-03-01 08:32:00,38.6,31.4,30.01,NE,54,0.0,0.0,75,0.00,,,0.00,Wunderground v.1.15,2013-03-01 13:32:00,
2013-03-01 08:38:00,39.1,31.2,30.01,ENE,69,1.0,1.0,73,0.00,,,0.00,Wunderground v.1.15,2013-03-01 13:38:00,
2013-03-01 08:44:00,39.8,31.8,30.01,ENE,58,1.0,2.0,73,0.00,,,0.00,Wunderground v.1.15,2013-03-01 13:44:00,
2013-03-01 08:50:00,40.5,31.8,30.01,ENE,70,1.0,1.0,71,0.00,,,0.00,Wunderground v.1.15,2013-03-01 13:50:00,
2013-03-01 08:56:00,41.1,31.7,30.01,East,99,2.0,3.0,69,0.00,,,0.00,Wunderground v.1.15,2013-03-01 13:56:00,
2013-03-01 09:02:00,41.4,31.6,30.01,NE,37,3.0,4.0,68,0.00,,,0.00,Wunderground v.1.15,2013-03-01 14:02:00,
2013-03-01 09:08:00,41.7,31.5,30.01,NE,53,3.0,4.0,67,0.00,,,0.00,Wunderground v.1.15,2013-03-01 14:08:00,
2013-03-01 09:14:00,42.4,32.2,30.00,ENE,63,2.0,3.0,67,0.00,,,0.00,Wunderground v.1.15,2013-03-01 14:14:00,
2013-03-01 09:20:00,43.5,32.5,30.00,ENE,74,1.0,1.0,65,0.00,,,0.00,Wunderground v.1.15,2013-03-01 14:20:00,
2013-03-01 09:26:00,44.3,32.5,30.00,NE,45,2.0,4.0,63,0.00,,,0.00,Wunderground v.1.15,2013-03-01 14:26:00,
2013-03-01 09:32:00,44.6,31.6,30.00,NE,50,2.0,6.0,60,0.00,,,0.00,Wunderground v.1.15,2013-03-01 14:32:00,
2013-03-01 09:38:00,44.8,31.8,30.00,NE,56,2.0,6.0,60,0.00,,,0.00,Wunderground v.1.15,2013-03-01 14:38:00,
2013-03-01 09:44:00,44.9,31.8,30.00,NNE,18,2.0,4.0,60,0.00,,,0.00,Wunderground v.1.15,2013-03-01 14:44:00,
2013-03-01 09:50:00,45.1,31.2,30.00,ESE,106,3.0,3.0,58,0.00,,,0.00,Wunderground v.1.15,2013-03-01 14:50:00,
2013-03-01 09:56:00,45.0,31.1,30.00,ENE,58,4.0,5.0,58,0.00,,,0.00,Wunderground v.1.15,2013-03-01 14:56:00,
2013-03-01 10:02:00,45.7,31.8,30.00,NE,55,3.0,3.0,58,0.00,,,0.00,Wunderground v.1.15,2013-03-01 15:02:00,
2013-03-01 10:08:00,46.5,32.1,30.00,ESE,112,2.0,3.0,57,0.00,,,0.00,Wunderground v.1.15,2013-03-01 15:08:00,
2013-03-01 10:14:00,47.0,33.0,30.00,East,81,2.0,3.0,58,0.00,,,0.00,Wunderground v.1.15,2013-03-01 15:14:00,
2013-03-01 10:20:00,47.4,31.6,30.00,NNE,25,2.0,2.0,54,0.00,,,0.00,Wunderground v.1.15,2013-03-01 15:20:00,
2013-03-01 10:26:00,47.4,32.5,30.00,ENE,66,3.0,8.0,56,0.00,,,0.00,Wunderground v.1.15,2013-03-01 15:26:00,
2013-03-01 10:32:00,48.0,31.7,30.00,NNE,14,2.0,5.0,53,0.00,,,0.00,Wunderground v.1.15,2013-03-01 15:32:00,
2013-03-01 10:38:00,48.2,32.3,30.00,NNE,30,2.0,7.0,54,0.00,,,0.00,Wunderground v.1.15,2013-03-01 15:38:00,
2013-03-01 10:44:00,47.7,30.9,30.00,NE,47,4.0,7.0,52,0.00,,,0.00,Wunderground v.1.15,2013-03-01 15:44:00,
2013-03-01 10:50:00,47.3,30.5,30.00,SSW,205,3.0,3.0,52,0.00,,,0.00,Wunderground v.1.15,2013-03-01 15:50:00,
2013-03-01 10:56:00,47.3,31.5,30.00,ENE,58,2.0,3.0,54,0.00,,,0.00,Wunderground v.1.15,2013-03-01 15:56:00,
2013-03-01 11:02:00,47.1,31.3,29.99,NE,45,1.0,6.0,54,0.00,,,0.00,Wunderground v.1.15,2013-03-01 16:02:00,
2013-03-01 11:08:00,47.0,30.7,29.99,NNE,16,2.0,6.0,53,0.00,,,0.00,Wunderground v.1.15,2013-03-01 16:08:00,
2013-03-01 11:14:00,47.2,30.9,29.99,East,82,2.0,3.0,53,0.00,,,0.00,Wunderground v.1.15,2013-03-01 16:14:00,
2013-03-01 11:20:00,47.6,30.3,29.99,South,176,2.0,2.0,51,0.00,,,0.00,Wunderground v.1.15,2013-03-01 16:20:00,
2013-03-01 11:26:00,47.4,30.6,29.99,North,10,3.0,4.0,52,0.00,,,0.00,Wunderground v.1.15,2013-03-01 16:26:00,
2013-03-01 11:32:00,47.3,30.1,29.99,SSE,148,3.0,5.0,51,0.00,,,0.00,Wunderground v.1.15,2013-03-01 16:32:00,
2013-03-01 11:38:00,47.2,30.9,29.99,NNE,29,3.0,6.0,53,0.00,,,0.00,Wunderground v.1.15,2013-03-01 16:38:00,
2013-03-01 11:44:00,47.4,30.6,29.99,NE,38,3.0,10.0,52,0.00,,,0.00,Wunderground v.1.15,2013-03-01 16:44:00,
2013-03-01 11:50:00,47.2,30.5,29.99,NE,56,4.0,4.0,52,0.00,,,0.00,Wunderground v.1.15,2013-03-01 16:50:00,
2013-03-01 11:56:00,47.3,30.5,29.99,East,85,3.0,4.0,52,0.00,,,0.00,Wunderground v.1.15,2013-03-01 16:56:00,
2013-03-01 12:02:00,47.7,30.9,29.99,ESE,110,1.0,5.0,52,0.00,,,0.00,Wunderground v.1.15,2013-03-01 17:02:00,
2013-03-01 12:08:00,47.8,31.0,29.99,NE,37,2.0,5.0,52,0.00,,,0.00,Wunderground v.1.15,2013-03-01 17:08:00,
2013-03-01 12:14:00,47.5,30.7,29.98,NE,54,3.0,5.0,52,0.00,,,0.00,Wunderground v.1.15,2013-03-01 17:14:00,
2013-03-01 12:20:00,47.2,31.4,29.98,ENE,67,4.0,4.0,54,0.00,,,0.00,Wunderground v.1.15,2013-03-01 17:20:00,
2013-03-01 12:26:00,47.1,30.4,29.98,East,88,4.0,5.0,52,0.00,,,0.00,Wunderground v.1.15,2013-03-01 17:26:00,
2013-03-01 12:32:00,46.8,30.6,29.98,NE,49,4.0,4.0,53,0.00,,,0.00,Wunderground v.1.15,2013-03-01 17:32:00,
2013-03-01 12:38:00,46.7,31.8,29.98,NE,41,3.0,7.0,56,0.00,,,0.00,Wunderground v.1.15,2013-03-01 17:38:00,
2013-03-01 12:44:00,46.5,32.1,29.98,NE,51,3.0,6.0,57,0.00,,,0.00,Wunderground v.1.15,2013-03-01 17:44:00,
2013-03-01 12:50:00,46.8,31.0,29.98,NE,55,3.0,4.0,54,0.00,,,0.00,Wunderground v.1.15,2013-03-01 17:50:00,
2013-03-01 12:56:00,46.8,31.5,29.97,East,93,3.0,5.0,55,0.00,,,0.00,Wunderground v.1.15,2013-03-01 17:56:00,
2013-03-01 13:02:00,47.0,31.7,29.97,NNE,33,3.0,3.0,55,0.00,,,0.00,Wunderground v.1.15,2013-03-01 18:02:00,
2013-03-01 13:08:00,46.8,31.0,29.97,NE,44,3.0,6.0,54,0.00,,,0.00,Wunderground v.1.15,2013-03-01 18:08:00,
2013-03-01 13:14:00,46.7,30.5,29.96,East,89,4.0,4.0,53,0.00,,,0.00,Wunderground v.1.15,2013-03-01 18:14:00,
2013-03-01 13:20:00,46.9,30.6,29.96,East,85,2.0,2.0,53,0.00,,,0.00,Wunderground v.1.15,2013-03-01 18:20:00,
2013-03-01 13:26:00,47.1,30.8,29.96,NE,51,2.0,6.0,53,0.00,,,0.00,Wunderground v.1.15,2013-03-01 18:26:00,
2013-03-01 13:32:00,47.2,30.9,29.96,ENE,75,3.0,3.0,53,0.00,,,0.00,Wunderground v.1.15,2013-03-01 18:32:00,
2013-03-01 13:38:00,47.5,31.7,29.95,NE,52,2.0,5.0,54,0.00,,,0.00,Wunderground v.1.15,2013-03-01 18:38:00,
2013-03-01 13:44:00,47.6,31.8,29.95,NE,35,2.0,3.0,54,0.00,,,0.00,Wunderground v.1.15,2013-03-01 18:44:00,
2013-03-01 13:50:00,47.5,30.7,29.95,ENE,62,2.0,6.0,52,0.00,,,0.00,Wunderground v.1.15,2013-03-01 18:50:00,
2013-03-01 13:56:00,47.4,30.6,29.95,NE,50,3.0,6.0,52,0.00,,,0.00,Wunderground v.1.15,2013-03-01 18:56:00,
2013-03-01 14:02:00,47.4,32.0,29.95,NNE,17,2.0,3.0,55,0.00,,,0.00,Wunderground v.1.15,2013-03-01 19:02:00,
2013-03-01 14:08:00,47.4,30.6,29.95,ENE,68,2.0,4.0,52,0.00,,,0.00,Wunderground v.1.15,2013-03-01 19:08:00,
2013-03-01 14:14:00,47.2,30.9,29.95,NE,52,4.0,6.0,53,0.00,,,0.00,Wunderground v.1.15,2013-03-01 19:14:00,
2013-03-01 14:20:00,47.1,30.8,29.94,NE,53,4.0,4.0,53,0.00,,,0.00,Wunderground v.1.15,2013-03-01 19:20:00,
2013-03-01 14:26:00,47.2,30.9,29.94,East,91,3.0,4.0,53,0.00,,,0.00,Wunderground v.1.15,2013-03-01 19:26:00,
2013-03-01 14:32:00,47.3,31.0,29.94,NE,37,4.0,7.0,53,0.00,,,0.00,Wunderground v.1.15,2013-03-01 19:32:00,
2013-03-01 14:38:00,47.4,32.0,29.94,NE,35,4.0,7.0,55,0.00,,,0.00,Wunderground v.1.15,2013-03-01 19:38:00,
2013-03-01 14:44:00,47.6,30.8,29.94,NE,44,3.0,6.0,52,0.00,,,0.00,Wunderground v.1.15,2013-03-01 19:44:00,
2013-03-01 14:50:00,48.0,31.7,29.94,East,83,3.0,3.0,53,0.00,,,0.00,Wunderground v.1.15,2013-03-01 19:50:00,
2013-03-01 14:56:00,48.6,32.2,29.94,NE,45,2.0,3.0,53,0.00,,,0.00,Wunderground v.1.15,2013-03-01 19:56:00,
2013-03-01 15:02:00,48.7,31.4,29.94,SE,139,3.0,3.0,51,0.00,,,0.00,Wunderground v.1.15,2013-03-01 20:02:00,
2013-03-01 15:08:00,48.7,31.8,29.94,NE,51,3.0,3.0,52,0.00,,,0.00,Wunderground v.1.15,2013-03-01 20:08:00,
2013-03-01 15:14:00,49.2,31.8,29.94,NE,45,3.0,5.0,51,0.00,,,0.00,Wunderground v.1.15,2013-03-01 20:14:00,
2013-03-01 15:20:00,48.7,32.3,29.94,ENE,64,4.0,4.0,53,0.00,,,0.00,Wunderground v.1.15,2013-03-01 20:20:00,
2013-03-01 15:26:00,48.8,31.5,29.94,East,80,2.0,4.0,51,0.00,,,0.00,Wunderground v.1.15,2013-03-01 20:26:00,
2013-03-01 15:32:00,48.7,31.8,29.94,ENE,59,2.0,4.0,52,0.00,,,0.00,Wunderground v.1.15,2013-03-01 20:32:00,
2013-03-01 15:38:00,48.7,31.8,29.94,ENE,66,2.0,4.0,52,0.00,,,0.00,Wunderground v.1.15,2013-03-01 20:38:00,
2013-03-01 15:44:00,48.8,31.5,29.94,ENE,74,2.0,2.0,51,0.00,,,0.00,Wunderground v.1.15,2013-03-01 20:44:00,
2013-03-01 15:50:00,49.0,31.6,29.94,ENE,68,1.0,2.0,51,0.00,,,0.00,Wunderground v.1.15,2013-03-01 20:50:00,
2013-03-01 15:56:00,48.6,30.8,29.94,NE,45,2.0,5.0,50,0.00,,,0.00,Wunderground v.1.15,2013-03-01 20:56:00,
2013-03-01 16:02:00,48.2,30.9,29.94,ENE,74,3.0,4.0,51,0.00,,,0.00,Wunderground v.1.15,2013-03-01 21:02:00,
2013-03-01 16:08:00,48.2,31.4,29.94,East,83,3.0,4.0,52,0.00,,,0.00,Wunderground v.1.15,2013-03-01 21:08:00,
2013-03-01 16:14:00,48.3,31.0,29.93,NE,45,2.0,3.0,51,0.00,,,0.00,Wunderground v.1.15,2013-03-01 21:14:00,
2013-03-01 16:20:00,48.8,31.0,29.93,NE,34,2.0,3.0,50,0.00,,,0.00,Wunderground v.1.15,2013-03-01 21:20:00,
2013-03-01 16:26:00,49.0,31.2,29.93,ENE,71,2.0,5.0,50,0.00,,,0.00,Wunderground v.1.15,2013-03-01 21:26:00,
2013-03-01 16:32:00,48.9,31.1,29.94,NE,47,2.0,4.0,50,0.00,,,0.00,Wunderground v.1.15,2013-03-01 21:32:00,
2013-03-01 16:38:00,48.4,30.1,29.94,East,93,3.0,5.0,49,0.00,,,0.00,Wunderground v.1.15,2013-03-01 21:38:00,
2013-03-01 16:44:00,48.1,30.8,29.94,ENE,62,3.0,5.0,51,0.00,,,0.00,Wunderground v.1.15,2013-03-01 21:44:00,
2013-03-01 16:50:00,48.1,30.8,29.94,NE,46,3.0,3.0,51,0.00,,,0.00,Wunderground v.1.15,2013-03-01 21:50:00,
2013-03-01 16:56:00,47.9,31.1,29.94,NE,41,3.0,6.0,52,0.00,,,0.00,Wunderground v.1.15,2013-03-01 21:56:00,
2013-03-01 17:02:00,47.8,31.0,29.94,NE,53,3.0,3.0,52,0.00,,,0.00,Wunderground v.1.15,2013-03-01 22:02:00,
2013-03-01 17:08:00,47.7,30.4,29.95,NE,37,2.0,5.0,51,0.00,,,0.00,Wunderground v.1.15,2013-03-01 22:08:00,
2013-03-01 17:14:00,47.5,30.3,29.95,East,79,3.0,3.0,51,0.00,,,0.00,Wunderground v.1.15,2013-03-01 22:14:00,
2013-03-01 17:20:00,47.5,31.2,29.95,NE,47,1.0,1.0,53,0.00,,,0.00,Wunderground v.1.15,2013-03-01 22:20:00,
2013-03-01 17:26:00,47.4,30.6,29.95,ENE,72,1.0,2.0,52,0.00,,,0.00,Wunderground v.1.15,2013-03-01 22:26:00,
2013-03-01 17:32:00,47.4,30.6,29.95,ENE,57,1.0,2.0,52,0.00,,,0.00,Wunderground v.1.15,2013-03-01 22:32:00,
2013-03-01 17:38:00,47.4,30.6,29.95,ENE,63,1.0,5.0,52,0.00,,,0.00,Wunderground v.1.15,2013-03-01 22:38:00,
2013-03-01 17:44:00,47.3,30.5,29.95,SE,126,2.0,2.0,52,0.00,,,0.00,Wunderground v.1.15,2013-03-01 22:44:00,
2013-03-01 17:50:00,47.3,30.5,29.95,NE,56,1.0,2.0,52,0.00,,,0.00,Wunderground v.1.15,2013-03-01 22:50:00,
2013-03-01 17:56:00,47.2,31.4,29.96,ENE,58,1.0,4.0,54,0.00,,,0.00,Wunderground v.1.15,2013-03-01 22:56:00,
2013-03-01 18:02:00,47.0,30.3,29.96,ENE,66,1.0,1.0,52,0.00,,,0.00,Wunderground v.1.15,2013-03-01 23:02:00,
2013-03-01 18:08:00,46.9,30.2,29.96,NE,49,1.0,4.0,52,0.00,,,0.00,Wunderground v.1.15,2013-03-01 23:08:00,
2013-03-01 18:14:00,46.9,30.6,29.96,NE,53,1.0,1.0,53,0.00,,,0.00,Wunderground v.1.15,2013-03-01 23:14:00,
2013-03-01 18:20:00,46.8,30.6,29.96,NE,52,0.0,0.0,53,0.00,,,0.00,Wunderground v.1.15,2013-03-01 23:20:00,
2013-03-01 18:26:00,46.6,30.4,29.97,NE,55,0.0,1.0,53,0.00,,,0.00,Wunderground v.1.15,2013-03-01 23:26:00,
2013-03-01 18:32:00,46.5,30.7,29.96,NE,55,0.0,0.0,54,0.00,,,0.00,Wunderground v.1.15,2013-03-01 23:32:00,
2013-03-01 18:38:00,46.3,31.0,29.97,NE,55,0.0,0.0,55,0.00,,,0.00,Wunderground v.1.15,2013-03-01 23:38:00,
2013-03-01 18:44:00,46.1,30.8,29.96,NE,55,0.0,0.0,55,0.00,,,0.00,Wunderground v.1.15,2013-03-01 23:44:00,
2013-03-01 18:50:00,45.9,30.6,29.97,NE,55,0.0,0.0,55,0.00,,,0.00,Wunderground v.1.15,2013-03-01 23:50:00,
2013-03-01 18:56:00,45.7,30.9,29.96,NE,55,0.0,0.0,56,0.00,,,0.00,Wunderground v.1.15,2013-03-01 23:56:00,
2013-03-01 19:02:00,45.5,31.6,29.97,NE,55,0.0,0.0,58,0.00,,,0.00,Wunderground v.1.15,2013-03-02 00:02:00,
2013-03-01 19:08:00,45.3,31.8,29.97,NE,55,0.0,0.0,59,0.00,,,0.00,Wunderground v.1.15,2013-03-02 00:08:00,
2013-03-01 19:14:00,45.1,31.6,29.97,NE,55,0.0,0.0,59,0.00,,,0.00,Wunderground v.1.15,2013-03-02 00:14:00,
2013-03-01 19:20:00,44.8,31.8,29.97,NE,55,0.0,0.0,60,0.00,,,0.00,Wunderground v.1.15,2013-03-02 00:20:00,
2013-03-01 19:26:00,44.6,31.6,29.97,NE,55,0.0,0.0,60,0.00,,,0.00,Wunderground v.1.15,2013-03-02 00:26:00,
2013-03-01 19:32:00,44.4,31.8,29.97,NE,55,0.0,0.0,61,0.00,,,0.00,Wunderground v.1.15,2013-03-02 00:32:00,
2013-03-01 19:38:00,44.2,31.6,29.97,NE,55,0.0,0.0,61,0.00,,,0.00,Wunderground v.1.15,2013-03-02 00:38:00,
2013-03-01 19:44:00,44.0,32.2,29.97,NE,55,0.0,0.0,63,0.00,,,0.00,Wunderground v.1.15,2013-03-02 00:44:00,
2013-03-01 19:50:00,43.8,32.0,29.98,NE,55,0.0,0.0,63,0.00,,,0.00,Wunderground v.1.15,2013-03-02 00:50:00,
2013-03-01 19:56:00,43.7,32.3,29.98,NE,55,0.0,0.0,64,0.00,,,0.00,Wunderground v.1.15,2013-03-02 00:56:00,
2013-03-01 20:02:00,43.6,32.6,29.98,NE,55,0.0,0.0,65,0.00,,,0.00,Wunderground v.1.15,2013-03-02 01:02:00,
2013-03-01 20:08:00,43.4,32.0,29.98,NE,55,0.0,0.0,64,0.00,,,0.00,Wunderground v.1.15,2013-03-02 01:08:00,
2013-03-01 20:14:00,43.3,32.7,29.98,NE,55,0.0,0.0,66,0.00,,,0.00,Wunderground v.1.15,2013-03-02 01:14:00,
2013-03-01 20:20:00,43.2,33.0,29.98,NE,55,0.0,0.0,67,0.00,,,0.00,Wunderground v.1.15,2013-03-02 01:20:00,
2013-03-01 20:26:00,43.0,32.8,29.98,NE,55,0.0,0.0,67,0.00,,,0.00,Wunderground v.1.15,2013-03-02 01:26:00,
2013-03-01 20:32:00,42.9,32.7,29.98,NE,55,0.0,0.0,67,0.00,,,0.00,Wunderground v.1.15,2013-03-02 01:32:00,
2013-03-01 20:38:00,42.7,32.5,29.98,NE,55,0.0,0.0,67,0.00,,,0.00,Wunderground v.1.15,2013-03-02 01:38:00,
2013-03-01 20:44:00,42.6,32.4,29.98,NE,55,0.0,0.0,67,0.00,,,0.00,Wunderground v.1.15,2013-03-02 01:44:00,
2013-03-01 20:50:00,42.6,32.4,29.98,NE,55,0.0,0.0,67,0.00,,,0.00,Wunderground v.1.15,2013-03-02 01:50:00,
2013-03-01 20:56:00,42.5,33.4,29.98,NE,55,0.0,0.0,70,0.00,,,0.00,Wunderground v.1.15,2013-03-02 01:56:00,
2013-03-01 21:02:00,42.4,32.9,29.98,NE,55,0.0,0.0,69,0.00,,,0.00,Wunderground v.1.15,2013-03-02 02:02:00,
2013-03-01 21:08:00,42.3,34.3,29.98,NE,55,0.0,0.0,73,0.00,,,0.00,Wunderground v.1.15,2013-03-02 02:08:00,
2013-03-01 21:14:00,42.2,33.5,29.98,NE,55,0.0,0.0,71,0.00,,,0.00,Wunderground v.1.15,2013-03-02 02:14:00,
2013-03-01 21:20:00,42.0,33.3,29.98,NE,55,0.0,0.0,71,0.00,,,0.00,Wunderground v.1.15,2013-03-02 02:20:00,
2013-03-01 21:26:00,41.9,33.2,29.98,NE,55,0.0,0.0,71,0.00,,,0.00,Wunderground v.1.15,2013-03-02 02:26:00,
2013-03-01 21:32:00,41.9,33.9,29.98,NE,55,0.0,0.0,73,0.00,,,0.00,Wunderground v.1.15,2013-03-02 02:32:00,
2013-03-01 21:38:00,41.8,33.8,29.98,NE,55,0.0,0.0,73,0.00,,,0.00,Wunderground v.1.15,2013-03-02 02:38:00,
2013-03-01 21:44:00,41.7,34.0,29.98,NE,55,0.0,0.0,74,0.00,,,0.00,Wunderground v.1.15,2013-03-02 02:44:00,
2013-03-01 21:50:00,41.7,34.4,29.98,NE,55,0.0,0.0,75,0.00,,,0.00,Wunderground v.1.15,2013-03-02 02:50:00,
2013-03-01 21:56:00,41.8,34.5,29.98,NE,55,0.0,0.0,75,0.00,,,0.00,Wunderground v.1.15,2013-03-02 02:56:00,
2013-03-01 22:02:00,41.8,34.5,29.98,NE,55,0.0,0.0,75,0.00,,,0.00,Wunderground v.1.15,2013-03-02 03:02:00,
2013-03-01 22:08:00,41.8,34.5,29.98,NE,55,0.0,0.0,75,0.00,,,0.00,Wunderground v.1.15,2013-03-02 03:08:00,
2013-03-01 22:14:00,41.6,34.3,29.98,NE,55,0.0,0.0,75,0.00,,,0.00,Wunderground v.1.15,2013-03-02 03:14:00,
2013-03-01 22:20:00,41.5,34.2,29.98,NE,55,0.0,0.0,75,0.00,,,0.00,Wunderground v.1.15,2013-03-02 03:20:00,
2013-03-01 22:26:00,41.5,34.5,29.98,NE,55,0.0,0.0,76,0.00,,,0.00,Wunderground v.1.15,2013-03-02 03:26:00,
2013-03-01 22:32:00,41.3,34.3,29.98,NE,55,0.0,0.0,76,0.00,,,0.00,Wunderground v.1.15,2013-03-02 03:32:00,
2013-03-01 22:38:00,41.3,34.3,29.98,NE,55,0.0,0.0,76,0.00,,,0.00,Wunderground v.1.15,2013-03-02 03:38:00,
2013-03-01 22:44:00,41.1,34.1,29.98,NE,55,0.0,0.0,76,0.00,,,0.00,Wunderground v.1.15,2013-03-02 03:44:00,
2013-03-01 22:50:00,41.1,34.4,29.98,NE,55,0.0,0.0,77,0.00,,,0.00,Wunderground v.1.15,2013-03-02 03:50:00,
2013-03-01 22:56:00,41.0,34.7,29.98,NE,55,0.0,0.0,78,0.00,,,0.00,Wunderground v.1.15,2013-03-02 03:56:00,
2013-03-01 23:02:00,40.9,34.6,29.98,NE,55,0.0,0.0,78,0.00,,,0.00,Wunderground v.1.15,2013-03-02 04:02:00,
2013-03-01 23:08:00,40.8,34.1,29.98,NE,55,0.0,0.0,77,0.00,,,0.00,Wunderground v.1.15,2013-03-02 04:08:00,
2013-03-01 23:14:00,40.7,34.4,29.98,NE,55,0.0,0.0,78,0.00,,,0.00,Wunderground v.1.15,2013-03-02 04:14:00,
2013-03-01 23:20:00,40.6,34.0,29.98,NE,55,0.0,0.0,77,0.00,,,0.00,Wunderground v.1.15,2013-03-02 04:20:00,
2013-03-01 23:26:00,40.5,34.2,29.98,NE,55,0.0,0.0,78,0.00,,,0.00,Wunderground v.1.15,2013-03-02 04:26:00,
2013-03-01 23:32:00,40.5,34.2,29.98,NE,55,0.0,0.0,78,0.00,,,0.00,Wunderground v.1.15,2013-03-02 04:32:00,
2013-03-01 23:38:00,40.4,34.1,29.97,NE,55,0.0,0.0,78,0.00,,,0.00,Wunderground v.1.15,2013-03-02 04:38:00,
2013-03-01 23:44:00,40.4,34.1,29.97,NE,55,0.0,0.0,78,0.00,,,0.00,Wunderground v.1.15,2013-03-02 04:44:00,
2013-03-01 23:50:00,40.4,34.1,29.98,NE,55,0.0,0.0,78,0.00,,,0.00,Wunderground v.1.15,2013-03-02 04:50:00,
2013-03-01 23:56:00,40.4,34.7,29.98,NE,55,0.0,0.0,80,0.00,,,0.00,Wunderground v.1.15,2013-03-02 04:56:00,